Theta_e
360 356 356 357 353 353 353 356 363 363 363 363 362 360 358 354 351 350 348 347 346 342
358 359 357 360 361 355 361 356 360 362 362 362 361 359 357 352 351 348 348 347 347 343
356 359 359 361 359 360 360 360 359 360 361 361 361 359 356 352 352 348 346 344 346 346
356 357 359 358 360 360 362 361 361 360 360 360 360 358 356 354 351 347 347 346 345 345
357 357 357 358 359 361 361 361 363 361 360 360 359 358 356 353 350 348 346 346 345 344
355 357 357 358 359 361 361 361 358 360 360 358 359 358 356 355 352 350 349 347 346 345
356 356 357 359 359 360 361 361 361 361 360 359 358 358 356 355 353 351 350 349 347 346
357 358 358 359 359 360 360 360 361 360 360 359 357 354 356 355 353 352 350 349 348 347
357 358 358 358 359 359 359 360 360 359 359 358 355 340 337 350 354 353 352 350 349 350
356 356 357 358 359 358 358 359 359 358 358 357 358 332 332 337 353 352 353 353 351 347
354 355 356 357 357 358 359 359 358 358 358 358 357 329 328 334 352 355 354 353 352 351
352 351 356 355 356 357 357 357 358 359 359 357 358 326 325 332 349 352 352 351 351 351
356 355 356 356 357 358 358 357 357 358 360 349 358 325 321 331 349 351 349 352 352 331
358 357 358 359 360 360 357 357 356 357 359 359 355 352 319 320 351 351 349 348 347 348
Wind_Speed
18 13 13 14 12 11 10 11 11 12 11 11 10 9 8 7 7 7 7 7 6 5
17 18 15 16 14 12 11 10 12 12 12 12 12 11 10 7 9 8 8 7 7 6
20 19 18 14 15 15 13 13 12 13 13 12 12 12 11 9 9 9 7 7 8 8
18 19 17 16 16 15 15 14 14 13 13 13 13 13 12 12 11 12 11 10 10 11
19 19 20 19 18 16 16 16 15 15 15 14 14 14 15 15 13 14 14 13 12 12
21 20 21 20 19 17 17 16 17 16 15 16 15 15 15 16 16 15 15 14 14 14
22 22 21 19 19 19 18 17 17 16 16 16 17 16 16 17 16 16 15 16 16 15
21 20 20 20 19 19 18 18 18 17 17 17 16 14 17 17 17 17 17 16 16 16
19 20 21 20 20 19 19 18 18 18 18 19 15 17 19 18 16 17 17 16 16 15
18 19 20 19 19 20 20 19 19 19 19 20 20 20 23 24 17 16 16 16 15 15
17 19 19 20 21 20 19 20 19 19 20 18 17 21 24 26 19 16 17 16 17 17
21 20 19 21 22 19 18 18 18 16 18 20 19 21 22 21 19 17 17 16 17 17
17 18 20 20 18 16 17 17 15 18 19 20 19 18 23 24 15 16 15 15 16 17
15 17 15 13 12 12 12 13 16 17 17 19 19 18 25 28 17 14 14 14 13 12
Wind_Direction
209 210 213 211 215 215 214 212 202 198 201 202 199 198 197 190 199 201 207 204 218 217
207 210 208 210 205 211 212 213 209 206 203 201 197 196 189 199 197 202 203 202 209 224
205 207 209 205 207 209 205 212 207 209 208 206 202 196 191 194 198 199 206 212 206 217
207 208 207 206 208 207 202 201 206 208 207 206 200 197 194 201 197 201 205 210 210 216
204 204 204 206 204 202 202 201 202 205 207 207 203 200 200 200 203 204 207 210 211 217
203 203 205 204 203 201 200 202 204 205 204 207 206 201 206 207 207 208 209 210 211 213
203 204 204 203 201 199 199 199 202 201 202 205 209 207 207 209 211 214 214 213 216 214
205 203 202 203 201 204 198 200 200 197 202 201 209 210 207 208 209 212 214 214 217 218
201 199 201 201 199 199 202 202 199 199 199 200 206 201 192 200 208 211 214 214 215 221
198 202 201 200 200 201 201 200 202 204 202 204 208 187 191 197 207 210 214 213 212 217
202 204 202 197 203 201 200 202 201 204 205 207 210 188 191 194 210 215 215 215 213 214
198 200 200 204 206 202 198 201 206 206 207 210 213 189 189 182 210 221 217 216 215 212
201 204 205 209 206 201 204 204 201 204 207 213 219 186 182 186 210 215 215 216 219 208
205 209 210 209 205 211 218 220 208 209 206 209 206 200 189 194 208 216 209 214 213 212